User: anonymous   Login
Location: Darlington Observatory
(36.4817°N, 105.8156°W)
Time: 22:06:01
(UTC-06:00)
Language:

MOS 1 - Orbit

View from above orbital plane
View from above orbital plane
View from above satellite
View from above satellite

Ground track
Ground track

The orbit data is extracted from the following two-line orbital elements,

1 17527U 87018A   15210.44481534  .00000315  00000-0  23481-3 0  9998
2 17527 099.2517 202.0739 0008878 030.8684 132.2832 14.02399565452916
Epoch (UTC): 29 July 2015 10:40:32
Eccentricity: 0.0008878
inclination: 99.2517°
perigee height: 879 km
apogee height: 892 km
right ascension of ascending node: 202.0739°
argument of perigee: 30.8684°
revolutions per day: 14.02399565
mean anomaly at epoch: 132.2832°
orbit number at epoch: 45291

The dashed part of the orbit path shows where the satellite is in the earth's shadow,  

DLR